Location: Centreville
(38.8333°N, 77.4295°W)
Time: 21:31:16
(UTC-04:00)

Envisat - Visible Passes

Search period start: 19 August 2019 00:00
Search period end: 29 August 2019 00:00
Orbit: 764 x 766 km, 98.1° (Epoch: 19 August)

Date Brightness Start Highest point End Pass type
(mag) Time Alt. Az. Time Alt. Az. Time Alt. Az.
21 Aug 5.8 20:38:34 10° SW 20:41:59 18° W 20:45:24 10° NW visible
24 Aug 5.6 20:26:39 10° SW 20:30:38 23° W 20:34:38 10° NW visible
26 Aug 6.1 20:54:16 10° WSW 20:56:23 13° W 20:58:32 10° WNW visible
27 Aug 5.2 20:14:56 10° SSW 20:19:18 29° W 20:23:42 10° NW visible
